sat.trackr.live / text

‹ back to catalog

STARLINK-4663

NORAD 53724 · 2022-107AA

PAYLOAD ACTIVE UNKNOWN

§ Identity

Operator
Country
US
Launch date
2022-09-05
Launch site
AFETR
Launch vehicle
Mass (kg)
RCS (m²)

Purposes: comms

External: N2YO · Heavens-Above · Gunter

§ Orbital elements

Epoch: 2026-09-20T21:27:14.821920Z

Period
93.79 min
Inclination
53.1582°
Eccentricity
0.0000938
Mean motion
15.35361171 rev/d
Perigee alt
459.2 km
Apogee alt
460.5 km
Semi-major
6,838.0 km
B*
-1.1186e-4
RAAN
82.3553°
Arg perigee
94.4281°
Mean anomaly
265.6829°
Rev number
22,409

§ Raw data

STARLINK-46631 53724U 22107AA  26263.89392155 -.00004275  00000+0 -11186-3 0  99932 53724  53.1582  82.3553 0000938  94.4281 265.6829 15.35361171224099

JSON: /api/v1/satellites/53724 · /tle

For live sub-satellite position, see the globe view (requires WebGL).

§ Visibility from observer

Set your observer location to see the next 7 days of passes ≥ 10°. The values pass through the URL so the page stays shareable.

No JS? Fill the form by hand. The geolocation button needs JavaScript.